DateTimeUTC,F1_A11,F1_S11,BsB_S11,BsG_S11,BsR_S11,BbsB_S11,BbsG_S11,BbsR_S11,BaB_A11,BaG_A11,BaR_A11,Tu_S11,T_S11,Uu_S11,U_S11,P_S11,T1_A11
2021-06-07T04:00:00Z,00000200,20000000,,,,,,,0000.33,0000.56,0000.31,16.7,23.8,04.7,03.0,0672.3,30.9
2021-06-07T04:01:00Z,00000200,20000000,,,,,,,0000.36,0000.07,0000.06,16.7,23.8,04.7,03.0,0672.3,30.9
2021-06-07T04:02:00Z,00000200,20000000,,,,,,,-000.14,0000.07,0000.28,16.7,23.8,04.7,03.0,0672.3,30.9
2021-06-07T04:03:00Z,00000200,60000000,,,,,,,0001.20,0001.03,0000.31,16.7,23.8,04.7,03.0,0672.3,30.9
2021-06-07T04:04:00Z,00000200,40000000,0000.67,0000.58,0000.34,-000.09,0000.00,0000.15,0000.98,0000.97,0000.90,16.9,23.6,05.4,03.6,0673.1,30.9
2021-06-07T04:05:00Z,00000200,00000000,0001.08,0000.65,0000.49,0000.28,0000.12,0000.43,0000.20,0000.09,0000.02,16.9,23.6,05.7,03.8,0673.2,30.9
2021-06-07T04:06:00Z,00000200,00000000,0001.40,0000.43,0000.52,0000.32,0000.18,-000.02,0000.49,0000.53,0000.82,16.9,23.6,05.8,03.9,0673.2,30.9
2021-06-07T04:07:00Z,00000200,00000000,0001.38,0000.39,0000.51,0000.57,-000.01,0000.17,0000.56,0000.29,0000.06,16.9,23.5,06.0,04.0,0673.2,30.9
2021-06-07T04:08:00Z,00000200,00000000,0001.57,0000.76,0000.29,0000.13,0000.32,-000.40,0000.50,0000.94,0000.31,16.9,23.5,06.2,04.1,0673.2,30.9
2021-06-07T04:09:00Z,00000200,00000000,0001.25,0000.68,0000.19,0000.38,0000.20,-000.13,0000.24,0000.45,0000.81,17.0,23.5,06.1,04.1,0673.2,30.9
2021-06-07T04:10:00Z,00000200,00000000,0000.83,0000.82,0000.47,0000.32,0000.10,0000.13,0000.67,0000.15,-000.36,16.9,23.5,06.2,04.1,0673.2,30.9
2021-06-07T04:11:00Z,00000200,00000000,0000.81,0000.49,0000.55,0000.50,0000.05,-000.00,0000.44,0000.21,0000.41,17.0,23.5,06.2,04.1,0673.2,30.9
2021-06-07T04:12:00Z,00000200,00000000,0001.29,0000.92,0000.49,0000.33,0000.25,0000.06,0000.33,0000.27,0000.53,17.0,23.5,06.2,04.2,0673.3,30.9
2021-06-07T04:13:00Z,00000200,00000000,0001.32,0000.50,0000.46,0000.37,-000.09,0000.58,0000.46,0000.55,0000.16,17.0,23.5,06.3,04.2,0673.3,30.9
2021-06-07T04:14:00Z,00000200,00000000,0000.83,0000.50,0000.33,0000.22,0000.21,0000.13,0000.31,0000.64,0000.26,17.0,23.5,06.5,04.3,0673.3,30.9
2021-06-07T04:15:00Z,00000200,00000000,0001.43,0000.84,0000.49,0000.15,-000.07,0000.04,0000.60,0000.01,0000.47,17.0,23.5,06.5,04.3,0673.3,30.9
2021-06-07T04:16:00Z,00000200,00000000,0001.24,0000.93,0000.36,0000.20,0000.22,0000.04,-000.02,0000.66,0000.21,17.0,23.5,06.5,04.3,0673.2,30.9
2021-06-07T04:17:00Z,00000200,00000000,0001.01,0000.80,0000.50,0000.24,-000.09,0000.07,0000.63,0000.40,0000.38,17.0,23.5,06.6,04.4,0673.2,30.9
2021-06-07T04:18:00Z,00000200,00000000,0001.14,0000.61,0000.65,0000.66,0000.31,0000.14,0000.66,0000.46,0000.49,17.0,23.5,06.7,04.5,0673.2,30.9
2021-06-07T04:19:00Z,00000200,00000000,0001.40,0000.72,0000.40,0000.28,0000.00,0000.12,0000.40,0000.51,0000.02,17.0,23.5,06.6,04.4,0673.2,30.9
2021-06-07T04:20:00Z,00000200,00000000,0001.51,0000.74,0000.51,0000.52,0000.02,0000.09,0000.40,-000.09,0000.13,17.0,23.5,06.7,04.5,0673.2,30.9
2021-06-07T04:21:00Z,00000200,00000000,0001.14,0000.57,0000.51,0000.48,0000.19,-000.03,-000.09,0000.34,0000.21,17.0,23.5,06.7,04.5,0673.2,30.9
2021-06-07T04:22:00Z,00000200,00000000,0001.43,0000.50,0000.49,0000.44,0000.19,-000.02,0000.28,0000.27,0000.42,17.0,23.5,06.7,04.5,0673.3,30.9
2021-06-07T04:23:00Z,00000200,00000000,0001.47,0000.70,0000.42,0000.56,0000.29,-000.02,0000.40,0000.19,0000.06,17.0,23.5,06.6,04.4,0673.3,30.9
2021-06-07T04:24:00Z,00000200,00000000,0001.55,0000.71,0000.49,-000.35,0000.26,0000.08,0000.40,0000.30,0000.50,17.0,23.5,06.6,04.4,0673.2,30.9
2021-06-07T04:25:00Z,00000200,00000000,0001.84,0000.51,0000.30,-000.07,0000.15,0000.09,0000.38,0000.52,0000.31,17.0,23.5,06.6,04.4,0673.2,30.9
2021-06-07T04:26:00Z,00000200,00000000,0000.78,0000.61,0000.39,0000.04,0000.26,-000.07,0000.38,0000.25,0000.03,17.0,23.5,06.6,04.4,0673.2,30.9
2021-06-07T04:27:00Z,00000200,00000000,0001.80,0000.67,0000.47,0000.35,0000.24,0000.19,0000.49,0000.27,0000.52,17.0,23.5,06.8,04.6,0673.2,30.9
2021-06-07T04:28:00Z,00000200,00000000,0001.68,0000.67,0000.64,-000.05,0000.16,0000.23,0000.49,0000.38,0000.19,17.0,23.5,06.8,04.6,0673.2,30.9
2021-06-07T04:29:00Z,00000200,00000000,0000.97,0000.54,0000.49,0000.54,-000.01,0000.10,0000.29,0000.23,0000.28,17.0,23.5,06.8,04.6,0673.2,30.9
2021-06-07T04:30:00Z,00000200,00000000,0000.53,0000.77,0000.46,0000.32,0000.31,0000.03,0000.30,0000.66,-000.01,17.0,23.5,06.9,04.6,0673.2,30.9
2021-06-07T04:31:00Z,00000200,00000000,0000.80,0000.62,0000.20,0000.25,-000.23,-000.09,0000.68,0000.19,0000.50,17.0,23.5,07.0,04.7,0673.2,30.9
2021-06-07T04:32:00Z,00000200,00000000,0001.07,0000.52,0000.48,0000.27,0000.14,0000.31,0000.15,0000.61,0000.29,17.0,23.5,06.9,04.7,0673.2,30.9
2021-06-07T04:33:00Z,00000200,00000000,0000.56,0000.59,0000.51,0000.14,0000.23,0000.30,0000.07,0000.30,0000.23,17.0,23.4,07.0,04.7,0673.2,30.9
2021-06-07T04:34:00Z,00000200,00000000,0001.49,0000.68,0000.56,0000.30,0000.13,0000.06,0000.73,0000.31,0000.41,17.0,23.5,07.0,04.7,0673.2,30.9
2021-06-07T04:35:00Z,00000200,00000000,0001.64,0000.64,0000.36,0000.91,0000.21,0000.16,0000.14,-000.15,0000.16,17.0,23.5,07.0,04.7,0673.2,30.9
2021-06-07T04:36:00Z,00000200,00000000,0000.95,0000.61,0000.38,-000.19,0000.19,0000.21,0000.57,0000.91,0000.56,17.1,23.5,07.1,04.8,0673.2,30.9
2021-06-07T04:37:00Z,00000200,00000000,0001.32,0000.78,0000.51,0000.48,-000.01,0000.04,0000.40,0000.13,-000.19,17.1,23.4,07.1,04.8,0673.2,30.9
2021-06-07T04:38:00Z,00000200,00000000,0000.39,0000.62,0000.31,-000.17,-000.03,-000.05,0000.23,0000.31,0000.23,17.1,23.5,07.2,04.9,0673.2,30.9
2021-06-07T04:39:00Z,00000200,00000000,0001.21,0000.64,0000.21,-000.13,0000.16,-000.09,0000.14,-000.02,0000.64,17.1,23.5,07.2,04.8,0673.2,30.9
2021-06-07T04:40:00Z,00000200,00000000,0001.48,0000.69,0000.68,-000.12,0000.10,-000.02,0000.63,0001.21,0000.27,17.1,23.5,07.2,04.8,0673.2,30.9
2021-06-07T04:41:00Z,00000200,00000000,0001.20,0000.68,0000.47,0000.80,0000.13,0000.20,0000.49,0000.12,0000.17,17.1,23.4,07.2,04.9,0673.2,30.9
2021-06-07T04:42:00Z,00000200,00000000,0001.41,0000.54,0000.52,0000.05,0000.07,0000.14,0000.47,0000.47,0000.22,17.1,23.5,07.4,05.0,0673.2,30.9
2021-06-07T04:43:00Z,00000200,00000000,0001.85,0000.61,0000.29,0000.09,0000.13,-000.13,0000.01,0000.11,0000.43,17.1,23.5,07.5,05.0,0673.2,30.9
2021-06-07T04:44:00Z,00000200,00000000,0001.20,0000.98,0000.45,0000.04,0000.11,-000.09,0000.43,0000.58,0000.02,17.1,23.4,07.4,05.0,0673.2,30.9
2021-06-07T04:45:00Z,00000200,00000000,0001.36,0000.92,0000.39,-000.01,0000.03,0000.07,0000.53,0000.34,0000.22,17.1,23.5,07.3,04.9,0673.2,30.9
2021-06-07T04:46:00Z,00000200,00000000,0001.22,0000.54,0000.30,0000.38,-000.05,-000.06,0000.14,0000.02,0000.30,17.1,23.5,07.3,04.9,0673.2,30.9
2021-06-07T04:47:00Z,00000200,00000000,0001.55,0000.51,-000.01,0000.61,0000.14,0000.14,0000.35,0000.20,0000.22,17.1,23.5,07.4,05.0,0673.2,30.9
2021-06-07T04:48:00Z,00000200,00000000,0001.10,0000.91,0000.57,0000.05,0000.25,0000.20,0000.53,0000.46,0000.26,17.1,23.5,07.4,05.0,0673.2,30.9
2021-06-07T04:49:00Z,00000200,00000000,0002.12,0000.74,0000.45,0000.78,0000.13,0000.28,0000.05,-000.38,0000.11,17.1,23.5,07.3,04.9,0673.2,30.9
2021-06-07T04:50:00Z,00000200,00000000,0001.51,0000.40,0000.35,0000.21,0000.13,0000.15,0000.31,0001.06,0000.34,17.1,23.5,07.4,05.0,0673.2,30.9
2021-06-07T04:51:00Z,00000200,00000000,0002.34,0001.12,0000.21,0000.08,0000.12,0000.25,0000.58,0000.17,0000.28,17.1,23.5,07.4,05.0,0673.2,30.9
2021-06-07T04:52:00Z,00000200,00000000,0001.32,0000.79,0000.53,0000.20,0000.04,0000.03,0000.27,0000.40,0000.33,17.1,23.5,07.3,04.9,0673.2,30.9
2021-06-07T04:53:00Z,00000200,00000000,0000.86,0001.00,0000.32,0000.27,0000.07,0000.48,0000.26,0000.37,0000.17,17.1,23.5,07.4,05.0,0673.2,30.9
2021-06-07T04:54:00Z,00000200,00000000,0001.50,0000.62,0000.58,0000.36,0000.25,-000.02,0000.46,0000.05,0000.30,17.1,23.5,07.3,04.9,0673.2,30.9
2021-06-07T04:55:00Z,00000200,00000000,0001.29,0000.79,0000.42,0000.51,0000.14,-000.13,-000.04,0000.14,0000.00,17.1,23.5,07.2,04.9,0673.2,30.9
2021-06-07T04:56:00Z,00000200,00000000,0000.54,0000.33,0000.57,0000.46,0000.23,0000.19,0000.61,0000.46,0000.15,17.1,23.5,07.2,04.9,0673.2,30.9
2021-06-07T04:57:00Z,00000200,40000000,,,,,,,-000.56,-000.63,-000.39,17.2,23.5,06.8,04.6,0673.2,30.9
2021-06-07T04:58:00Z,00000200,60000000,,,,,,,0000.08,0000.15,0000.04,16.9,23.6,06.9,04.6,0672.2,30.9
2021-06-07T04:59:00Z,00000200,20000000,,,,,,,0000.34,0000.01,-000.01,16.9,23.7,07.0,04.6,0672.2,30.9
